www.pogodaiklimat.ru

Погода и климат >> Архив погоды >> Антарктида >> Marble Point


ПОГОДА в Marble Point

  • Прогноз погоды в Marble Point
  • Монитор погоды в Marble Point
  • Климат города

АРХИВ ПОГОДЫ в Marble Point

Время (UTC), дата Ветер
(напр.,м/с)
 
Видим.   Явления Облачность Т
(С)
Тd
(С)
f
(%)
Тe
(С)
Тes
(С)
Комфортность P
(гПа)
Po
(гПа)
Тmin
(С)
Tmax
(С)
R
(мм)
R24
(мм)
S
(см)
22 13.05 0 н/о н/о -11.8 968.0
23 13.05 0 н/о н/о -11.3 968.0
00 14.05 0 н/о н/о -11.6 968.0
02 14.05 0 н/о н/о -12.9 967.5
01 14.05 0 н/о н/о -12.0 967.4
03 14.05 0 н/о н/о -11.6 966.6
04 14.05 0 н/о н/о -11.6 966.6
05 14.05 0 н/о н/о -11.9 966.2
06 14.05 0 н/о н/о -10.8 965.8
08 14.05 0 н/о н/о -11.0 965.5
07 14.05 0 н/о н/о -10.8 965.8
09 14.05 0 н/о н/о -11.8 965.0
10 14.05 0 н/о н/о -11.3 964.1
11 14.05 0 н/о н/о -11.8 964.5
12 14.05 0 н/о н/о -10.8 964.4
14 14.05 0 н/о н/о -12.0 964.2
13 14.05 0 н/о н/о -12.3 964.2
15 14.05 0 н/о н/о -12.0 964.2
16 14.05 0 н/о н/о -12.6 963.7
17 14.05 0 н/о н/о -11.3 963.9
18 14.05 0 н/о н/о -10.6 964.1
20 14.05 0 н/о н/о -10.6 964.3
19 14.05 0 н/о н/о -11.1 963.8
21 14.05 0 н/о н/о -10.8 963.5
22 14.05 0 н/о н/о -10.5 964.5
23 14.05 0 н/о н/о -10.3 964.1
00 15.05 0 н/о н/о -11.0 963.5
02 15.05 0 н/о н/о -11.3 964.4
01 15.05 0 н/о н/о -10.8 964.0
03 15.05 0 н/о н/о -11.5 964.9
04 15.05 0 н/о н/о -10.6 965.1
05 15.05 0 н/о н/о -11.4 964.9
06 15.05 0 н/о н/о -10.6 964.9
08 15.05 0 н/о н/о -11.8 965.6
07 15.05 0 н/о н/о -10.3 965.2
09 15.05 0 н/о н/о -12.3 965.8
10 15.05 0 н/о н/о -12.9 965.7
11 15.05 0 н/о н/о -13.0 966.7
12 15.05 0 н/о н/о -13.0 967.1
14 15.05 0 н/о н/о -13.8 968.2
13 15.05 0 н/о н/о -12.6 967.4
15 15.05 0 н/о н/о -13.6 968.2
16 15.05 0 н/о н/о -13.6 968.9
17 15.05 0 н/о н/о -13.8 970.5
18 15.05 0 н/о н/о -16.1 971.1
20 15.05 0 н/о н/о -19.8 973.6
19 15.05 0 н/о н/о -18.6 972.5
21 15.05 0 н/о н/о -19.8 975.7
22 15.05 0 н/о н/о -19.5 977.2
23 15.05 0 н/о н/о -20.0 978.4
00 16.05 0 н/о н/о -19.6 979.0
02 16.05 0 н/о н/о -20.0 979.7
01 16.05 0 н/о н/о -19.6 980.0
03 16.05 0 н/о н/о -19.8 980.5
04 16.05 0 н/о н/о -20.0 980.3
05 16.05 0 н/о н/о -17.9 980.4
06 16.05 0 н/о н/о -19.1 982.0
08 16.05 0 н/о н/о -19.6 982.7
07 16.05 0 н/о н/о -19.4 982.1
09 16.05 0 н/о н/о -20.0 982.7
10 16.05 0 н/о н/о -19.6 982.6
11 16.05 0 н/о н/о -20.3 982.4
12 16.05 0 н/о н/о -20.9 982.0
14 16.05 0 н/о н/о -20.3 980.7
13 16.05 0 н/о н/о -20.8 981.2
15 16.05 0 н/о н/о -20.6 984.4
16 16.05 0 н/о н/о -20.1 979.5
17 16.05 0 н/о н/о -20.6 978.8
18 16.05 0 н/о н/о -20.1 978.5
20 16.05 0 н/о н/о -20.4 978.1
19 16.05 0 н/о н/о -21.3 978.5
21 16.05 0 н/о н/о -20.4 977.8
22 16.05 0 н/о н/о -20.1 977.6
23 16.05 0 н/о н/о -20.1 977.5
00 17.05 0 н/о н/о -20.0 977.4
02 17.05 0 н/о н/о -20.8 977.4
01 17.05 0 н/о н/о -19.8 977.4
03 17.05 0 н/о н/о -22.4 977.9
04 17.05 0 н/о н/о -21.4 978.2
05 17.05 0 н/о н/о -21.4 979.3
06 17.05 0 н/о н/о -19.6 979.7
08 17.05 0 н/о н/о -18.9 981.3
07 17.05 0 н/о н/о -18.8 980.3
09 17.05 0 н/о н/о -20.3 982.5
10 17.05 0 н/о н/о -20.6 983.2
11 17.05 0 н/о н/о -20.0 984.2
12 17.05 0 н/о н/о -21.5 985.3
14 17.05 0 н/о н/о -20.0 987.1
13 17.05 0 н/о н/о -20.1 986.7
15 17.05 0 н/о н/о -17.9 988.0
16 17.05 0 н/о н/о -20.1 988.5
17 17.05 0 н/о н/о -20.4 989.8
18 17.05 0 н/о н/о -19.1 991.4
20 17.05 0 н/о н/о -20.3 992.4
19 17.05 0 н/о н/о -19.5 991.6
21 17.05 0 н/о н/о -19.1 992.8
22 17.05 0 н/о н/о -18.9 993.6
23 17.05 0 н/о н/о -19.4 994.5
00 18.05 0 н/о н/о -19.5 994.7
02 18.05 0 н/о н/о -20.1 994.9
01 18.05 0 н/о н/о -20.0 994.8
03 18.05 0 н/о н/о -20.1 994.9
04 18.05 0 н/о н/о -21.0 994.9
05 18.05 0 н/о н/о -20.9 994.9
06 18.05 0 н/о н/о -20.6 995.0
08 18.05 0 н/о н/о -20.6 994.8
07 18.05 0 н/о н/о -20.8 994.9
09 18.05 0 н/о н/о -21.4 994.5
10 18.05 0 н/о н/о -22.6 994.5
11 18.05 0 н/о н/о -21.0 993.5
12 18.05 0 н/о н/о -29.0 993.4
14 18.05 0 н/о н/о -22.4 991.7
13 18.05 0 н/о н/о -21.4 992.6
15 18.05 0 н/о н/о -23.0 991.3
16 18.05 0 н/о н/о -22.9 990.7
17 18.05 0 н/о н/о -22.6 989.8
18 18.05 0 н/о н/о -24.0 989.0
20 18.05 0 н/о н/о -23.6 987.4
19 18.05 0 н/о н/о -23.6 988.4
21 18.05 0 н/о н/о -23.8 987.0
22 18.05 0 н/о н/о -23.6 986.6
23 18.05 0 н/о н/о -24.4 985.8
00 19.05 0 н/о н/о -24.0 984.8
02 19.05 0 н/о н/о -24.3 984.2
01 19.05 0 н/о н/о -24.5 984.5
03 19.05 0 н/о н/о -25.0 983.7
04 19.05 0 н/о н/о -26.9 983.2
05 19.05 0 н/о н/о -24.9 983.2
06 19.05 0 н/о н/о -25.4 983.2
08 19.05 0 н/о н/о -24.5 983.4
07 19.05 0 н/о н/о -24.9 983.2
09 19.05 0 н/о н/о -24.4 983.3
10 19.05 0 н/о н/о -24.3 983.2
11 19.05 0 н/о н/о -24.4 983.0
12 19.05 0 н/о н/о -26.8 982.9
14 19.05 0 н/о н/о -27.1 982.9
13 19.05 0 н/о н/о -26.6 982.8
15 19.05 0 н/о н/о -26.8 982.8
16 19.05 0 н/о н/о -26.6 982.5
17 19.05 0 н/о н/о -26.8 982.6
18 19.05 0 н/о н/о -27.9 982.7
20 19.05 0 н/о н/о -26.1 982.7
19 19.05 0 н/о н/о -27.8 982.7
21 19.05 0 н/о н/о -25.8 982.5
22 19.05 0 н/о н/о -26.3 982.3
23 19.05 0 н/о н/о -26.1 982.1
00 20.05 0 н/о н/о -26.5 982.0
02 20.05 0 н/о н/о -26.1 981.7
01 20.05 0 н/о н/о -25.5 981.7
03 20.05 0 н/о н/о -26.0 981.5
04 20.05 0 н/о н/о -25.5 981.5
05 20.05 0 н/о н/о -26.1 981.6
06 20.05 0 н/о н/о -28.0 982.0
08 20.05 0 н/о н/о -29.5 982.6
07 20.05 0 н/о н/о -27.1 982.1
09 20.05 0 н/о н/о -28.1 982.7
10 20.05 0 н/о н/о -27.9 983.1
11 20.05 0 н/о н/о -26.8 983.6
12 20.05 0 н/о н/о -27.3 983.7
14 20.05 0 н/о н/о -27.4 984.5
13 20.05 0 н/о н/о -27.1 983.9
15 20.05 0 н/о н/о -27.5 985.0
16 20.05 0 н/о н/о -27.5 985.5
17 20.05 0 н/о н/о -27.5 985.8
18 20.05 0 н/о н/о -27.3 986.2
20 20.05 0 н/о н/о -27.1 987.7
19 20.05 0 н/о н/о -26.9 986.7

 

Местоположение метеостанции Marble Point (Антарктида): широта -77.43 долгота 163.75 высота над уровнем моря 108 м.

В архиве по умолчанию представлена погода в Marble Point за последнюю неделю. Архивные данные за месяц целиком и за предыдущие месяцы, начиная с января 2011 года, Вы можете получить, выбрав интересующий диапазон дат из раскрывающегося списка и нажав кнопку "Ввод!".


*Определитесь, кто Вы:
робот инопланетянин человек

Внимание! Время в таблицах - всемирное. Для получения местного времени необходимо прибавить поправку, которая в Marble Point равна 0 ч.

Смотрите также архив погоды в соседних городах и на ближайших метеорологических станциях:

Погода в Cape Ross (Антарктида) (82 км)
Погода в McMurdo (Антарктида) (84 км)
Погода в Pegasus North (Антарктида) (87 км)
Погода в Minna Bluff (Антарктида) (142 км)
Погода в Linda (Антарктида) (156 км)
Погода в Ferrell (Антарктида) (175 км)
Погода в Manuela (Антарктида) (277 км)
Погода в Marilyn (Антарктида) (282 км)
Погода в Baia Terra Nova (Антарктида) (304 км)
Погода в Schwerdtfeger (Антарктида) (305 км)

Пояснения к столбцам:

Ветер - указаны скорость ветра в м/с - средняя за 10 мин, порывы в срок и между сроками (в фигурных скобках) и направление, откуда дует ветер: С - северный, СВ - северо-восточный, В - восточный, ЮВ - юго-восточный, Ю - южный, ЮЗ - юго-западный, З - западный, СЗ - северо-западный.
Видимость - горизонтальная дальность видимости в метрах или километрах. При видимости от 1 до 10 км при отсутствии осадков обычно наблюдается дымка, при ухудшении видимости до 1 км и менее - туман. В сухую погоду видимость может ухудшаться дымом, пылью или мглою.
Явления - указаны атмосферные явления, наблюдавшиеся в срок или в последний час перед сроком; фигурными скобками обозначены явления, наблюдавшиеся между сроками (за 1-3 часа до срока); квадратными скобками обозначены град или гололедные отложения с указанием их диаметра в мм.
Облачность - указаны через наклонную черту общая и нижняя облачность в баллах и высота нижней границы облаков в метрах; квадратными скобками обозначены формы облаков: Ci - перистые, Cs - перисто-слоистые, Cc - перисто-кучевые, Ac - высококучевые, As - высокослоистые, Sc - слоисто-кучевые, Ns - слоисто-дождевые, Cu - кучевые, Cb - кучево-дождевые. Подробнее классификацию облаков см. в Атласе облаков (PDF).
T - Температура воздуха - температура, измеренная на высоте 2 м над землей.
Td - Температура точки росы - температура, при понижении до которой содержащийся в воздухе водяной пар достигнет насыщения.
f - Относительная влажность воздуха - влажноcть воздуха, измеренная на высоте 2 м над землей.
Te - Эффективная температура - температура, которую ощущает одетый по сезону человек в тени. Характеристика душности погоды. При расчете учитывается влияние влажности воздуха и скорости ветра на теплоощущения человека.
Tes - Эффективная температура на солнце - температура, которую ощущает человек, с поправкой на солнечный нагрев. Характеристика знойности погоды. Зависит от высоты солнца над горизонтом, облачности и скорости ветра. Ночью, в пасмурную погоду, а также при ветре 12 м/с и более поправка равна нулю.
P - Атмосферное давление - приведенное к уровню моря атмосферное давление.
Po - Атмосферное давление - измеренное на уровне метеостанции атмосферное давление.
Tmin - Минимальная температура - минимум температуры воздуха на высоте 2 м над землей.
Tmax - Максимальная температура - максимум температуры воздуха на высоте 2 м над землей.
R - Количество осадков - Количество выпавших осадков за период времени, мм. При наведении курсора мыши на число - период времени, за который выпало указанное количество осадков.
R24 - Количество осадков - Количество выпавших осадков за 24 часа, мм.
S - Снежный покров - Высота снежного покрова, см. При наведении курсора мыши на число - состояние снежного покрова и степень покрытия местности в баллах.